EW5862 Weather Reports


time (UTC)temp
F
wind
direction
speed
knots
gust
knots
rain 1hr
in
rain 24hr
in
rain mn
in
humidity
%
barometer
mb
20260510210517 0 0.0 0.0 0.00 0.00 0.00
20260510210017 0 0.0 0.0 0.00 0.00 0.00
20260510205017 0 0.0 0.0 0.00 0.00 0.00
20260510204017 0 0.0 0.0 0.00 0.00 0.00
20260510203045 0 0.0 0.0 0.00 0.00 0.00
20260510202517 0 0.0 0.0 0.00 0.00 0.00
20260510201517 0 0.0 0.0 0.00 0.00 0.00
20260510201017 0 0.0 0.0 0.00 0.00 0.00
20260510200017 0 0.0 0.0 0.00 0.00 0.00
20260510195524 0 0.0 0.0 0.00 0.00 0.00
20260510195037 0 0.0 0.0 0.00 0.00 0.00
20260510194017 0 0.0 0.0 0.00 0.00 0.00
20260510193516 0 0.0 0.0 0.00 0.00 0.00
20260510192517 0 0.0 0.0 0.00 0.00 0.00
20260510191517 0 0.0 0.0 0.00 0.00 0.00
20260510190535 0 0.0 0.0 0.00 0.00 0.00
20260510190016 0 0.0 0.0 0.00 0.00 0.00
20260510185016 0 0.0 0.0 0.00 0.00 0.00
20260510184517 0 0.0 0.0 0.00 0.00 0.00
20260510183517 0 0.0 0.0 0.00 0.00 0.00
20260510183024 0 0.0 0.0 0.00 0.00 0.00
20260510182517 0 0.0 0.0 0.00 0.00 0.00
20260510181516 0 0.0 0.0 0.00 0.00 0.00
20260510181026 67 0.0 0.0 0.00 0.00 0.00 57 1010.4
20260510180655 67 338 0.9 2.6 0.00 0.00 0.00 57 1010.4
20260510175537 68 338 5.2 10.4 0.00 0.00 0.00 54 1010.1
20260510174516 68 338 3.5 10.4 0.00 0.00 0.00 54 1010.2
20260510173517 68 338 6.1 12.2 0.00 0.00 0.00 54 1010.1
20260510172516 68 338 4.3 10.4 0.00 0.00 0.00 54 1010.1
20260510171536 69 338 6.1 13.0 0.00 0.00 0.00 52 1009.9
20260510170517 69 338 9.6 13.0 0.00 0.00 0.00 51 1010.0
20260510165517 70 338 7.8 12.2 0.00 0.00 0.00 50 1010.1
20260510164557 71 338 6.1 11.3 0.00 0.00 0.00 50 1010.2
20260510163516 72 338 8.7 14.8 0.00 0.00 0.00 48 1010.2
20260510162516 72 338 7.0 14.8 0.00 0.00 0.00 49 1010.1
20260510161516 72 338 10.4 18.2 0.00 0.00 0.00 48 1010.1
20260510160516 72 338 10.4 17.4 0.00 0.00 0.00 49 1010.2
20260510155517 71 338 7.8 19.1 0.00 0.00 0.00 52 1010.0
20260510154516 71 338 7.0 12.2 0.00 0.00 0.00 52 1010.1
20260510153516 71 338 7.0 21.7 0.00 0.00 0.00 52 1010.2
20260510152516 71 338 8.7 21.7 0.00 0.00 0.00 53 1010.3
20260510151517 72 338 7.8 13.0 0.00 0.00 0.00 52 1010.4
20260510150516 71 338 6.1 13.0 0.00 0.00 0.00 56 1010.5
20260510145536 72 338 6.1 13.0 0.00 0.00 0.00 54 1010.6
20260510144516 73 338 7.0 13.0 0.00 0.00 0.00 54 1010.8
20260510143516 73 338 4.3 10.4 0.00 0.00 0.00 60 1011.2
20260510142516 72 338 7.8 13.0 0.00 0.00 0.00 60 1011.2
20260510141516 72 338 5.2 13.0 0.00 0.00 0.00 61 1011.3
20260510135516 71 338 6.1 12.2 0.00 0.00 0.00 63 1011.6
20260510134536 70 338 6.1 13.9 0.00 0.00 0.00 64 1011.7
20260510133516 71 338 6.1 13.0 0.00 0.00 0.00 61 1011.7
20260510132556 71 338 6.1 13.0 0.00 0.00 0.00 63 1012.0
20260510131516 72 338 7.8 15.6 0.00 0.00 0.00 60 1012.1
20260510130516 72 338 9.6 14.8 0.00 0.00 0.00 62 1012.2
20260510125531 71 338 7.8 18.2 0.00 0.00 0.00 60 1012.1
20260510124536 71 338 5.2 13.0 0.00 0.00 0.00 55 1012.2
20260510123546 72 0.0 0.0 0.00 0.00 0.00 51 1012.3
20260510123021 72 338 11.3 20.9 0.00 0.00 0.00 51 1012.4
20260510122504 72 338 6.1 10.4 0.00 0.00 0.00 51 1012.5
20260510122016 72 338 8.7 13.0 0.00 0.00 0.00 52 1012.7
20260510121016 71 338 7.0 13.9 0.00 0.00 0.00 53 1013.1
20260510120036 71 338 7.0 13.9 0.00 0.00 0.00 53 1013.2
20260510115016 70 338 8.7 14.8 0.00 0.00 0.00 52 1013.1
20260510114016 69 338 7.8 14.8 0.00 0.00 0.00 56 1013.3
20260510113036 70 338 9.6 17.4 0.00 0.00 0.00 55 1013.6
20260510112036 69 338 7.8 13.0 0.00 0.00 0.00 56 1013.6
20260510111016 68 338 10.4 17.4 0.00 0.00 0.00 54 1013.7
20260510110016 69 338 8.7 17.4 0.00 0.00 0.00 55 1013.8
20260510105016 69 338 7.0 15.6 0.00 0.00 0.00 56 1013.8
20260510104016 69 338 7.0 16.5 0.00 0.00 0.00 53 1013.8
20260510103016 69 338 7.0 17.4 0.00 0.00 0.00 51 1014.0
20260510102016 69 338 7.0 14.8 0.00 0.00 0.00 51 1013.9
20260510101016 68 338 3.5 11.3 0.00 0.00 0.00 52 1013.9
20260510100016 69 338 7.0 13.0 0.00 0.02 0.00 50 1013.8
20260510095036 68 338 7.8 14.8 0.00 0.02 0.00 54 1013.8
20260510094015 67 338 3.5 12.2 0.00 0.02 0.00 56 1014.0
20260510093016 65 338 1.7 7.8 0.00 0.02 0.00 58 1013.9
20260510092016 65 338 0.9 4.3 0.00 0.02 0.00 58 1013.8
20260510091015 64 338 4.3 7.8 0.00 0.02 0.00 57 1014.0
20260510090016 64 338 7.8 11.3 0.00 0.02 0.00 58 1014.1
20260510085015 63 338 7.8 11.3 0.00 0.02 0.00 60 1014.1
20260510084015 63 338 7.0 13.9 0.00 0.02 0.00 62 1014.1
20260510083015 62 338 6.1 10.4 0.00 0.02 0.00 66 1014.1
20260510082036 61 338 5.2 8.7 0.00 0.02 0.00 71 1014.0
20260510081015 60 338 2.6 7.0 0.00 0.02 0.00 83 1014.2
20260510080016 59 0.0 0.9 0.00 0.02 0.00 85 1014.1
20260510075015 59 0.0 0.0 0.00 0.02 0.00 81 1014.2
20260510074015 58 0.0 0.0 0.00 0.02 0.00 79 1014.1
20260510073036 57 0.0 0.0 0.00 0.02 0.00 79 1014.4
20260510072016 56 0.0 0.0 0.00 0.02 0.00 80 1014.2
20260510071015 55 0.0 0.0 0.00 0.02 0.00 80 1014.1
20260510070016 53 0.0 0.0 0.00 0.03 0.00 80 1013.8
20260510065015 52 0.0 0.0 0.00 0.04 0.00 80 1013.8
20260510064035 51 0.0 0.0 0.00 0.05 0.00 80 1013.5
20260510063017 51 0.0 0.0 0.00 0.05 0.00 80 1013.4
20260510062017 50 0.0 0.0 0.00 0.05 0.00 80 1013.4
20260510061017 50 0.0 0.0 0.00 0.05 0.00 80 1013.4
20260510060017 49 0.0 0.0 0.00 0.05 0.00 80 1013.3
20260510055017 49 0.0 0.0 0.00 0.05 0.00 80 1013.2
20260510054017 48 0.0 0.0 0.00 0.05 0.00 80 1013.1
20260510053017 48 0.0 0.0 0.00 0.05 0.00 81 1012.9
20260510052037 48 0.0 0.0 0.00 0.05 0.00 81 1012.9
20260510051546 48 0.0 0.9 0.00 0.05 0.00 81 1012.9
20260510051017 48 0.0 0.0 0.00 0.05 0.00 81 1013.0
20260510050017 48 0.0 0.0 0.00 0.05 0.00 81 1013.1
20260510045017 48 0.0 0.0 0.00 0.05 0.00 81 1013.1
20260510044017 48 0.0 0.0 0.00 0.05 0.00 81 1013.1
20260510043017 48 0.0 0.0 0.00 0.05 0.00 81 1013.0
20260510042017 48 0.0 0.0 0.00 0.05 0.00 81 1012.9
20260510041017 48 0.0 0.0 0.00 0.05 0.00 81 1013.0
20260510040037 48 0.0 0.0 0.00 0.05 0.00 81 1012.9
20260510035017 48 0.0 0.0 0.00 0.05 0.00 81 1012.8
20260510034017 48 0.0 0.0 0.00 0.05 0.00 81 1013.0
20260510033017 48 0.0 0.0 0.00 0.05 0.00 81 1012.9
20260510032037 49 0.0 0.0 0.00 0.05 0.00 81 1013.0
20260510031017 49 0.0 0.0 0.00 0.05 0.00 81
20260510030017 49 0.0 0.0 0.00 0.05 0.00 81
20260510025037 49 0.0 0.0 0.00 0.05 0.00 81
20260510024017 49 0.0 0.0 0.00 0.05 0.00 82
20260510023057 50 0.0 0.0 0.00 0.05 0.00 81
20260510022017 50 0.0 0.0 0.00 0.05 0.00 81
20260510021037 50 0.0 0.0 0.00 0.05 0.00 81
20260510020017 50 0.0 0.0 0.00 0.05 0.00 81
20260510015017 49 0.0 1.7 0.00 0.05 0.00 81
20260510014017 49 0.0 0.0 0.00 0.05 0.00 82 1012.7
20260510013017 50 0.0 0.9 0.00 0.05 0.00 83 1012.5
20260510012017 51 0.0 2.6 0.00 0.05 0.00 81 1012.8
20260510011057 51 0.0 2.6 0.00 0.05 0.00 82 1012.7
20260510010017 51 0.0 0.0 0.00 0.05 0.00 81 1012.8
20260510005017 51 338 1.7 3.5 0.00 0.05 0.00 81 1012.8
20260510004017 51 0.0 0.0 0.00 0.05 0.00 81 1012.9
20260510003017 51 0.0 0.0 0.00 0.05 0.00 82 1013.1
20260510002037 52 0.0 0.0 0.00 0.05 0.00 82 1013.1
20260510001017 52 0.0 0.0 0.00 0.05 0.00 81 1013.1
20260510000017 52 0.0 0.0 0.00 0.05 0.00 82 1013.2
20260509235017 53 0.0 0.0 0.00 0.05 0.00 82 1013.3
20260509234017 53 0.0 0.0 0.00 0.05 0.00 82
20260509233017 54 0.0 0.0 0.00 0.05 0.00 82
20260509232017 54 0.0 0.0 0.00 0.05 0.00 81
20260509231017 54 0.0 0.0 0.00 0.05 0.00 81
20260509230017 54 0.0 0.0 0.00 0.05 0.00 81
20260509225037 54 0.0 0.0 0.00 0.05 0.00 82
20260509224017 54 0.0 0.0 0.00 0.05 0.00 82 1013.5
20260509223057 53 0.0 0.0 0.00 0.05 0.00 82 1013.5
20260509222017 53 0.0 0.0 0.00 0.05 0.00 83 1013.4
20260509221017 52 0.0 2.6 0.00 0.05 0.00 84 1013.4
20260509220016 52 338 2.6 3.5 0.00 0.05 0.05 84 1013.3
20260509215057 52 338 2.6 3.5 0.00 0.05 0.05 84 1013.2
20260509214017 53 315 0.9 2.6 0.00 0.05 0.05 85 1012.9
20260509213017 53 0.0 0.0 0.00 0.05 0.05 85 1013.0
20260509212017 53 0.0 1.7 0.00 0.05 0.05 85 1013.0